Theta_e
308 308 309 309 309 310 311 313 313 314 316 317 319 319 321 319 316 317 319 323 342 342 347 351 345 346 348 348 348 342 352 356 354 352 351 348 345 342 341 343 344 345 343 344 343
307 308 309 309 309 309 310 312 312 314 316 317 318 320 321 320 318 320 319 322 343 342 343 344 346 347 349 350 348 344 348 349 349 348 349 348 345 346 343 345 349 347 344 345 346
305 306 307 308 307 308 309 311 312 314 316 316 318 320 321 319 319 319 330 321 342 341 343 344 344 342 346 347 348 347 345 343 347 346 346 348 345 345 344 344 348 347 347 346 347
305 305 306 306 307 309 310 311 311 314 316 317 318 320 321 319 322 321 326 323 344 345 346 344 342 343 346 348 347 348 345 345 348 347 346 347 344 347 342 342 343 344 345 346 348
306 306 306 306 307 308 309 310 312 315 316 318 318 321 320 317 318 317 329 340 345 343 339 337 339 343 346 347 347 347 346 345 347 346 346 346 346 347 344 344 345 344 345 348 348
307 307 307 307 307 307 308 311 313 316 321 323 321 321 321 320 321 320 335 346 346 340 331 333 337 340 345 347 348 346 347 347 346 347 346 347 347 345 345 346 347 346 347 347 348
308 308 308 308 307 307 309 311 317 324 327 327 323 321 322 322 324 327 339 341 340 340 328 329 333 339 344 347 345 346 349 347 346 347 347 346 350 349 345 347 349 349 349 348 347
308 309 309 308 308 307 309 315 325 327 324 324 321 322 324 321 321 326 332 328 337 328 327 324 332 341 345 343 344 348 350 355 348 346 346 346 351 348 345 348 350 350 350 350 349
308 309 309 309 308 308 310 322 324 321 320 320 322 323 324 325 327 325 327 324 323 324 326 326 337 342 342 346 348 347 355 354 351 346 347 346 350 348 345 347 350 351 349 349 349
308 309 309 310 309 308 317 324 324 326 327 329 329 326 323 327 326 319 325 324 320 320 324 327 336 342 344 345 348 350 350 352 352 349 349 349 350 348 346 346 347 348 349 349 348
308 309 310 310 309 312 320 323 323 323 322 328 327 322 323 326 325 322 320 320 320 322 323 325 331 337 338 342 344 345 347 349 348 347 350 353 352 351 347 347 347 347 347 346 346
307 308 310 310 309 314 318 321 318 318 324 322 322 322 323 326 327 326 318 323 322 323 322 325 330 332 332 340 343 345 345 346 346 348 351 352 354 351 349 348 347 347 347 346 344
306 308 309 310 310 309 317 317 313 316 325 325 323 324 325 326 326 328 320 319 321 321 321 324 327 325 330 338 340 342 339 343 344 350 349 350 353 354 350 348 347 346 346 345 345
306 308 309 310 309 307 316 316 313 317 328 327 326 326 325 326 327 326 319 322 320 321 321 323 321 326 332 332 336 336 337 341 346 350 352 350 349 354 352 351 349 348 346 346 344
307 308 309 309 309 310 313 311 318 318 333 327 326 323 323 326 324 324 320 323 323 321 322 323 321 323 327 329 334 334 340 342 348 348 347 350 349 348 352 353 352 349 347 346 345
308 309 309 309 308 308 309 317 319 326 324 329 326 326 326 324 323 321 324 321 320 321 320 322 319 321 324 324 336 337 339 339 342 344 343 344 346 345 351 354 352 349 348 346 345
310 309 310 309 308 310 311 321 327 323 324 329 328 325 325 325 325 324 324 326 327 325 324 321 322 321 321 325 335 337 334 334 337 341 340 339 349 345 345 344 346 349 347 346 345
310 310 313 311 310 310 316 328 326 320 329 328 327 324 327 325 326 323 325 327 321 322 322 323 321 322 321 324 328 335 332 332 334 338 337 339 346 342 338 336 339 340 342 345 345
310 311 318 318 316 312 325 326 325 322 327 327 326 327 327 325 326 323 325 327 326 321 324 323 322 319 319 322 328 332 336 332 332 324 334 338 341 336 337 342 345 345 344 347 344
309 311 317 313 312 317 325 321 323 322 326 325 329 325 329 328 326 324 323 323 325 322 324 324 325 319 320 320 318 328 328 329 327 333 333 330 330 333 337 335 339 348 347 347 345
308 320 317 316 318 322 320 322 322 325 325 324 327 328 325 327 329 325 326 323 321 320 320 321 323 321 319 322 323 322 327 320 325 325 330 328 327 331 335 335 335 341 349 347 346
308 313 315 318 328 321 323 323 322 326 324 324 324 326 327 325 327 327 328 325 321 320 322 320 323 326 322 317 318 320 323 324 326 327 323 324 326 326 328 331 331 334 346 346 346
312 311 315 317 330 328 324 324 324 328 327 326 326 324 323 326 330 326 328 330 323 321 322 318 325 325 322 320 319 322 320 319 320 323 328 326 326 328 324 325 328 334 343 348 347
312 316 321 319 318 323 325 328 328 324 325 325 326 326 326 328 327 332 333 337 331 321 331 321 319 326 324 324 324 323 319 318 322 325 325 325 327 328 329 329 331 338 342 346 349
314 317 315 324 324 321 322 323 326 328 324 323 325 324 327 328 328 331 333 337 335 333 320 321 325 323 323 322 322 324 323 319 323 326 325 327 326 328 330 330 330 334 342 344 348
316 316 315 317 317 321 318 322 324 325 324 325 324 326 328 331 329 330 338 338 340 336 335 323 328 324 325 322 323 325 325 324 321 322 322 325 327 328 329 328 333 337 342 345 347
309 309 313 315 319 320 322 323 324 322 324 323 324 325 329 329 325 327 330 333 336 338 337 334 331 334 332 327 326 326 327 327 326 326 327 329 331 326 329 334 336 341 343 345 347
Wind_Speed
21 21 22 22 23 23 22 21 22 22 20 20 20 19 18 21 17 7 4 3 10 15 15 13 4 3 1 2 2 0 3 4 6 9 9 12 10 9 8 13 4 2 7 16 25
22 22 23 23 24 24 23 22 23 22 20 19 19 18 17 21 11 7 4 7 15 20 14 10 5 6 1 2 1 1 2 3 6 8 13 13 15 11 9 12 5 9 15 24 24
24 24 24 25 26 25 24 23 24 22 19 18 17 16 15 15 4 0 4 10 19 17 8 3 4 1 0 2 3 2 3 3 4 6 16 16 13 4 13 9 10 18 21 23 21
26 26 26 26 26 25 25 25 25 21 19 16 14 14 13 5 4 4 7 14 22 12 9 4 1 2 0 4 2 2 1 4 8 11 14 15 13 6 7 2 12 21 25 24 18
27 27 27 28 28 27 26 26 24 21 18 16 11 10 4 2 5 7 3 18 21 10 5 2 0 1 3 3 2 3 3 5 11 14 11 13 11 4 2 9 18 21 23 20 18
29 29 29 29 28 29 28 26 24 20 20 17 10 4 1 4 5 4 6 16 11 7 3 3 2 2 4 4 2 4 7 12 13 13 13 12 7 8 5 14 20 21 21 19 18
29 30 31 30 30 28 26 26 21 20 14 11 6 3 2 9 2 2 9 10 9 6 2 1 0 1 1 5 2 3 8 9 10 11 7 12 6 8 14 16 21 20 18 18 18
30 30 31 31 30 29 27 22 16 8 5 3 5 3 5 3 5 2 9 6 8 4 3 5 3 6 2 4 3 3 2 2 5 9 8 11 1 10 19 20 19 18 16 16 17
31 32 32 30 28 29 24 16 5 5 6 6 2 0 6 2 4 4 10 5 7 4 4 3 3 3 4 4 3 1 3 3 5 9 7 11 2 8 17 18 17 17 17 16 15
32 33 32 31 30 27 16 2 2 3 2 3 2 3 3 1 1 1 8 5 2 6 5 2 3 3 2 3 2 3 3 3 6 9 8 10 5 11 17 17 18 16 16 16 16
33 35 32 30 30 18 12 2 2 3 1 4 1 2 3 7 3 3 4 9 3 3 4 2 5 9 10 3 4 4 2 2 3 5 8 11 7 13 17 16 17 16 16 16 17
35 37 33 30 25 8 6 3 4 2 7 4 9 8 7 3 2 2 10 6 4 7 5 3 11 8 4 7 5 4 1 4 2 3 5 3 9 10 18 21 22 21 19 18 18
38 38 34 29 13 6 4 7 6 1 3 4 4 4 4 9 4 5 10 5 4 6 6 8 1 5 7 6 6 5 5 4 3 5 3 3 6 8 14 14 16 18 20 20 19
42 38 34 28 2 12 0 1 14 8 2 2 2 2 5 5 4 4 8 3 3 12 6 5 1 5 6 8 7 10 1 4 5 4 2 2 5 6 11 18 17 20 20 21 20
45 39 34 20 12 2 1 11 2 3 0 1 3 3 3 5 3 3 1 2 9 7 6 6 5 7 6 8 9 4 5 4 4 3 3 3 5 2 7 12 20 22 23 22 21
45 41 28 6 5 5 6 6 3 2 2 2 4 4 7 2 2 3 3 5 4 5 1 4 1 4 7 3 4 8 7 6 4 1 5 2 5 6 5 7 9 21 24 24 22
44 35 11 5 1 1 7 1 1 3 2 2 2 4 5 7 4 5 8 12 9 7 10 2 5 2 2 3 4 3 6 2 2 4 4 1 5 11 9 8 10 14 21 24 22
45 17 7 2 2 3 1 2 3 1 3 2 1 1 7 8 4 4 9 11 3 3 3 10 8 9 7 10 5 11 5 6 7 4 2 4 6 5 3 7 10 12 13 19 21
38 9 4 11 4 2 2 3 3 3 3 6 0 4 5 4 4 4 7 11 12 11 6 6 6 2 6 5 8 6 7 1 3 2 3 1 6 12 5 5 2 1 10 16 21
20 7 7 9 8 1 1 2 3 3 4 2 2 2 7 6 7 6 9 5 10 15 9 6 3 2 5 5 5 7 11 5 1 4 5 4 5 9 13 14 6 3 9 14 19
7 1 7 3 6 1 3 4 4 4 3 2 3 3 1 3 5 4 4 3 5 10 8 9 5 2 3 10 11 5 5 4 3 2 7 9 7 8 16 12 12 4 9 14 19
7 3 7 10 1 1 2 3 3 2 1 3 3 5 3 1 4 5 5 4 6 11 9 9 7 9 8 2 3 1 5 8 7 7 3 3 7 5 9 10 9 9 9 14 16
4 3 5 4 2 1 2 3 3 3 2 2 3 4 1 2 3 4 4 3 6 10 10 11 7 4 5 4 2 5 3 3 3 1 8 9 8 2 7 11 11 10 11 13 11
3 4 2 3 3 3 4 3 3 3 5 5 4 3 3 4 4 1 3 4 4 6 3 8 4 11 7 11 5 6 6 8 9 4 7 9 12 13 15 13 14 3 8 12 13
4 3 2 4 2 5 3 4 5 5 1 2 2 2 4 4 3 4 4 2 3 4 3 8 6 6 3 2 5 4 10 13 11 7 6 9 8 14 17 13 12 1 12 12 15
3 3 4 4 5 5 1 1 3 4 3 2 3 10 6 6 4 6 4 3 2 4 3 2 2 3 3 3 3 3 5 7 6 2 12 13 13 12 17 9 11 6 14 16 17
4 2 1 2 3 4 1 2 2 10 5 7 6 10 9 2 11 13 10 7 1 0 3 3 5 4 6 1 4 4 13 11 6 8 8 6 9 5 9 9 11 6 15 17 16
Wind_Direction
358 355 353 351 349 348 344 341 340 338 337 337 338 342 339 333 329 310 247 177 167 150 153 157 164 158 119 75 49 162 94 129 144 160 142 141 126 148 118 132 119 52 143 140 152
358 354 350 349 346 344 342 338 335 333 332 333 333 338 338 334 331 264 218 162 163 155 138 154 156 163 87 71 142 267 75 142 164 144 153 155 149 144 151 135 88 101 112 138 154
358 353 349 345 344 343 341 336 332 329 327 327 329 332 337 332 297 198 353 173 168 163 159 138 107 131 25 202 29 73 76 154 142 151 150 149 145 135 149 182 171 156 147 155 162
357 353 349 345 344 340 336 332 330 324 321 319 324 328 333 337 207 8 337 170 167 162 136 122 129 189 155 71 52 125 85 129 132 142 144 157 148 131 160 175 161 159 156 159 169
356 353 350 346 343 340 334 329 325 319 315 310 312 325 347 343 264 334 6 165 172 163 131 133 195 91 66 68 80 61 75 87 130 139 141 144 158 148 156 132 139 150 159 166 175
354 351 349 346 340 337 332 328 323 317 310 297 285 306 70 256 312 314 157 161 177 151 133 196 7 86 88 66 51 44 84 108 135 138 150 156 154 137 142 142 145 158 168 175 181
353 350 347 345 339 336 330 326 321 317 313 291 243 154 177 249 12 107 153 178 170 186 119 192 328 28 87 110 62 79 101 103 146 152 152 142 152 220 153 159 157 169 175 178 188
353 350 346 344 340 334 330 326 323 331 347 97 138 129 252 266 227 202 168 142 181 195 207 331 165 99 27 120 65 68 75 109 156 178 160 186 217 184 165 163 170 174 182 190 193
353 349 347 344 340 333 331 327 7 66 88 102 79 247 269 272 260 234 184 140 171 199 192 94 71 76 144 146 136 71 183 153 169 203 168 210 200 165 174 175 173 182 184 195 203
352 348 346 344 341 332 335 346 70 80 82 74 85 272 238 143 182 206 183 176 124 125 115 120 86 142 132 184 173 218 206 169 190 190 198 204 209 157 176 185 183 185 191 199 204
352 348 345 344 339 337 350 298 295 192 345 228 151 273 304 321 277 217 156 147 153 89 173 65 206 213 211 141 145 156 216 209 226 211 214 217 206 180 181 187 188 192 197 202 209
353 349 343 344 340 357 14 67 84 316 303 254 256 269 270 300 293 156 153 156 169 200 128 168 228 224 126 160 176 179 230 249 241 189 226 241 247 196 189 200 193 188 195 207 212
352 348 342 343 343 15 39 122 352 208 274 288 219 234 203 175 222 198 172 136 145 166 198 208 288 181 196 169 203 228 245 223 280 146 180 273 250 182 208 218 216 209 202 202 212
350 346 341 341 37 342 237 206 324 177 314 239 233 251 156 179 193 197 188 128 123 197 171 233 348 171 190 211 203 256 201 191 184 200 283 307 299 220 202 209 216 213 209 205 205
347 345 336 334 295 249 172 331 101 182 233 110 111 124 123 198 108 140 164 111 152 152 186 199 185 192 212 224 194 267 75 118 140 128 297 187 270 218 166 214 219 217 214 213 206
343 340 325 318 251 251 298 339 161 267 248 91 123 159 157 186 126 107 153 84 98 127 213 216 244 212 240 96 173 146 107 84 86 149 266 314 249 274 195 204 226 218 216 212 209
342 338 314 219 260 335 337 170 229 227 351 81 85 167 179 174 169 174 176 190 191 186 206 178 212 256 211 134 116 175 164 243 231 208 253 174 219 263 261 242 243 212 213 211 206
341 344 349 291 329 331 233 141 223 271 273 10 30 148 191 164 198 151 155 188 191 156 155 201 208 203 171 218 190 183 234 220 254 234 260 178 239 257 250 284 264 249 232 208 200
343 350 32 334 278 222 202 183 238 219 329 330 345 184 189 177 201 172 194 205 208 192 217 168 233 209 216 160 184 168 210 44 146 109 259 304 278 275 273 262 306 226 191 190 193
339 339 11 37 105 311 153 240 245 232 325 292 273 223 177 155 173 194 181 203 209 199 203 180 230 206 142 130 60 214 149 175 178 230 248 220 276 272 300 308 324 210 181 183 188
358 345 7 2 355 51 214 241 264 258 245 285 310 293 258 164 166 184 192 204 208 184 210 176 221 118 164 210 173 154 188 64 136 272 256 266 261 238 259 279 293 249 183 183 184
346 315 349 348 208 352 206 210 304 301 318 278 264 258 254 204 177 208 220 242 171 155 186 183 203 223 211 74 14 217 195 190 215 207 245 288 263 260 269 278 280 287 199 192 190
351 294 355 347 262 237 305 274 260 281 265 294 274 247 232 277 231 196 211 142 171 176 165 171 209 180 181 171 140 226 174 160 119 127 220 254 270 168 259 270 271 266 200 192 170
332 329 347 45 23 358 355 288 277 248 269 250 272 279 282 251 227 253 228 170 155 205 134 168 164 202 198 195 164 173 185 200 211 185 238 233 262 270 274 275 277 227 194 202 174
5 47 21 337 66 349 310 313 289 304 255 270 238 167 345 271 218 223 227 222 148 136 99 191 216 193 189 177 184 192 179 191 204 211 227 256 219 260 264 268 281 312 172 194 178
3 358 350 289 299 289 169 284 281 313 264 283 265 339 302 236 258 218 208 228 202 126 126 137 178 192 132 147 186 223 238 206 245 220 247 269 271 274 278 257 262 210 178 193 189
13 33 299 329 316 285 181 344 342 344 265 274 345 329 288 209 317 286 285 295 217 204 128 172 155 189 156 108 161 236 230 201 204 212 231 234 273 329 309 270 261 222 187 193 195